Time,TemperatureF,DewpointF,PressureIn,WindDirection,WindDirectionDegrees,WindSpeedMPH,WindSpeedGustMPH,Humidity,HourlyPrecipIn,Conditions,Clouds,dailyrainin,SoftwareType,DateUTC
2013-07-13 00:00:00,56.0,44.0,30.21,WNW,290,12.0,-999.0,66,-99.99,,,-99.99,,2013-07-13 08:00:00,
2013-07-13 00:33:00,56.0,44.0,30.21,WNW,290,12.0,-999.0,66,-99.99,,,-99.99,,2013-07-13 08:33:00,
2013-07-13 00:43:00,56.0,44.0,30.21,WNW,290,12.0,-999.0,66,-99.99,,,-99.99,,2013-07-13 08:43:00,
2013-07-13 00:52:00,56.0,44.0,30.21,WNW,290,12.0,-999.0,66,-99.99,,,-99.99,,2013-07-13 08:52:00,
2013-07-13 01:00:00,56.0,45.0,30.22,West,270,8.0,-999.0,68,-99.99,,,-99.99,,2013-07-13 09:00:00,
2013-07-13 01:32:00,56.0,45.0,30.22,West,270,8.0,-999.0,68,-99.99,,,-99.99,,2013-07-13 09:32:00,
2013-07-13 01:42:00,56.0,45.0,30.22,West,270,8.0,-999.0,68,-99.99,,,-99.99,,2013-07-13 09:42:00,
2013-07-13 01:53:00,56.0,45.0,30.22,West,270,8.0,-999.0,68,-99.99,,,-99.99,,2013-07-13 09:53:00,
2013-07-13 02:00:00,56.0,44.0,30.22,WNW,290,8.0,-999.0,65,-99.99,,,-99.99,,2013-07-13 10:00:00,
2013-07-13 02:32:00,56.0,44.0,30.22,WNW,290,8.0,-999.0,65,-99.99,,,-99.99,,2013-07-13 10:32:00,
2013-07-13 02:42:00,56.0,44.0,30.22,WNW,290,8.0,-999.0,65,-99.99,,,-99.99,,2013-07-13 10:42:00,
2013-07-13 02:52:00,56.0,44.0,30.22,WNW,290,8.0,-999.0,65,-99.99,,,-99.99,,2013-07-13 10:52:00,
2013-07-13 04:00:00,56.0,45.0,30.22,NW,310,9.0,-999.0,66,-99.99,,,-99.99,,2013-07-13 12:00:00,
2013-07-13 04:43:00,56.0,45.0,30.22,NW,310,9.0,-999.0,66,-99.99,,,-99.99,,2013-07-13 12:43:00,
2013-07-13 04:52:00,56.0,45.0,30.22,NW,310,9.0,-999.0,66,-99.99,,,-99.99,,2013-07-13 12:52:00,
2013-07-13 05:00:00,56.0,44.0,30.23,SW,220,3.0,-999.0,65,-99.99,,,-99.99,,2013-07-13 13:00:00,
2013-07-13 05:43:00,56.0,44.0,30.23,SW,220,3.0,-999.0,65,-99.99,,,-99.99,,2013-07-13 13:43:00,
2013-07-13 05:53:00,56.0,44.0,30.23,SW,220,3.0,-999.0,65,-99.99,,,-99.99,,2013-07-13 13:53:00,
2013-07-13 06:00:00,55.0,45.0,30.24,SSE,160,3.0,-999.0,68,-99.99,,,-99.99,,2013-07-13 14:00:00,
2013-07-13 06:32:00,55.0,45.0,30.24,SSE,160,3.0,-999.0,68,-99.99,,,-99.99,,2013-07-13 14:32:00,
2013-07-13 06:43:00,55.0,45.0,30.24,SSE,160,3.0,-999.0,68,-99.99,,,-99.99,,2013-07-13 14:43:00,
2013-07-13 06:53:00,55.0,45.0,30.24,SSE,160,3.0,-999.0,68,-99.99,,,-99.99,,2013-07-13 14:53:00,
2013-07-13 07:00:00,55.0,47.0,30.25,SSE,160,5.0,-999.0,73,-99.99,,,-99.99,,2013-07-13 15:00:00,
2013-07-13 07:33:00,55.0,47.0,30.25,SSE,160,5.0,-999.0,73,-99.99,,,-99.99,,2013-07-13 15:33:00,
2013-07-13 07:43:00,55.0,47.0,30.25,SSE,160,5.0,-999.0,73,-99.99,,,-99.99,,2013-07-13 15:43:00,
2013-07-13 07:53:00,55.0,47.0,30.25,SSE,160,5.0,-999.0,73,-99.99,,,-99.99,,2013-07-13 15:53:00,
2013-07-13 08:00:00,56.0,48.0,30.25,South,190,10.0,-999.0,76,-99.99,,,-99.99,,2013-07-13 16:00:00,
2013-07-13 08:32:00,56.0,48.0,30.25,South,190,10.0,-999.0,76,-99.99,,,-99.99,,2013-07-13 16:32:00,
2013-07-13 08:43:00,56.0,48.0,30.25,South,190,10.0,-999.0,76,-99.99,,,-99.99,,2013-07-13 16:43:00,
2013-07-13 08:53:00,56.0,48.0,30.25,South,190,10.0,-999.0,76,-99.99,,,-99.99,,2013-07-13 16:53:00,
2013-07-13 09:00:00,55.0,48.0,30.24,SSW,210,13.0,-999.0,76,-99.99,,,-99.99,,2013-07-13 17:00:00,
2013-07-13 09:33:00,55.0,48.0,30.24,SSW,210,13.0,-999.0,76,-99.99,,,-99.99,,2013-07-13 17:33:00,
2013-07-13 09:42:00,55.0,48.0,30.24,SSW,210,13.0,-999.0,76,-99.99,,,-99.99,,2013-07-13 17:42:00,
2013-07-13 09:52:00,55.0,48.0,30.24,SSW,210,13.0,-999.0,76,-99.99,,,-99.99,,2013-07-13 17:52:00,
2013-07-13 10:00:00,55.0,48.0,30.24,SSW,210,12.0,-999.0,75,-99.99,,,-99.99,,2013-07-13 18:00:00,
2013-07-13 10:43:00,55.0,48.0,30.24,SSW,210,12.0,-999.0,75,-99.99,,,-99.99,,2013-07-13 18:43:00,
2013-07-13 10:52:00,55.0,48.0,30.24,SSW,210,12.0,-999.0,75,-99.99,,,-99.99,,2013-07-13 18:52:00,
2013-07-13 11:00:00,55.0,45.0,30.24,South,180,8.0,-999.0,68,-99.99,,,-99.99,,2013-07-13 19:00:00,
2013-07-13 11:32:00,55.0,45.0,30.24,South,180,8.0,-999.0,68,-99.99,,,-99.99,,2013-07-13 19:32:00,
2013-07-13 11:44:00,55.0,45.0,30.24,South,180,8.0,-999.0,68,-99.99,,,-99.99,,2013-07-13 19:44:00,
2013-07-13 11:52:00,55.0,45.0,30.24,South,180,8.0,-999.0,68,-99.99,,,-99.99,,2013-07-13 19:52:00,
2013-07-13 12:00:00,55.0,49.0,30.24,South,170,16.0,-999.0,81,-99.99,,,-99.99,,2013-07-13 20:00:00,
2013-07-13 12:33:00,55.0,49.0,30.24,South,170,16.0,-999.0,81,-99.99,,,-99.99,,2013-07-13 20:33:00,
2013-07-13 12:42:00,55.0,49.0,30.24,South,170,16.0,-999.0,81,-99.99,,,-99.99,,2013-07-13 20:42:00,
2013-07-13 12:52:00,55.0,49.0,30.24,South,170,16.0,-999.0,81,-99.99,,,-99.99,,2013-07-13 20:52:00,
2013-07-13 13:00:00,53.0,52.0,30.22,South,180,21.0,-999.0,94,-99.99,,,-99.99,,2013-07-13 21:00:00,
2013-07-13 13:32:00,53.0,52.0,30.22,South,180,21.0,-999.0,94,-99.99,,,-99.99,,2013-07-13 21:32:00,
2013-07-13 13:42:00,53.0,52.0,30.22,South,180,21.0,-999.0,94,-99.99,,,-99.99,,2013-07-13 21:42:00,
2013-07-13 13:53:00,53.0,52.0,30.22,South,180,21.0,-999.0,94,-99.99,,,-99.99,,2013-07-13 21:53:00,
2013-07-13 14:00:00,55.0,54.0,30.21,South,170,20.0,-999.0,96,-99.99,,,-99.99,,2013-07-13 22:00:00,
2013-07-13 14:32:00,55.0,54.0,30.21,South,170,20.0,-999.0,96,-99.99,,,-99.99,,2013-07-13 22:32:00,
2013-07-13 14:43:00,55.0,54.0,30.21,South,170,20.0,-999.0,96,-99.99,,,-99.99,,2013-07-13 22:43:00,
2013-07-13 14:53:00,55.0,54.0,30.21,South,170,20.0,-999.0,96,-99.99,,,-99.99,,2013-07-13 22:53:00,
2013-07-13 15:00:00,55.0,55.0,30.19,SSW,210,10.0,-999.0,100,-99.99,,,-99.99,,2013-07-13 23:00:00,
2013-07-13 15:32:00,55.0,55.0,30.19,SSW,210,10.0,-999.0,100,-99.99,,,-99.99,,2013-07-13 23:32:00,
2013-07-13 15:42:00,55.0,55.0,30.19,SSW,210,10.0,-999.0,100,-99.99,,,-99.99,,2013-07-13 23:42:00,
2013-07-13 15:52:00,55.0,55.0,30.19,SSW,210,10.0,-999.0,100,-99.99,,,-99.99,,2013-07-13 23:52:00,
2013-07-13 16:00:00,55.0,55.0,30.19,West,260,12.0,-999.0,99,-99.99,,,-99.99,,2013-07-14 00:00:00,
2013-07-13 16:42:00,55.0,55.0,30.19,West,260,12.0,-999.0,99,-99.99,,,-99.99,,2013-07-14 00:42:00,
2013-07-13 16:52:00,55.0,55.0,30.19,West,260,12.0,-999.0,99,-99.99,,,-99.99,,2013-07-14 00:52:00,
2013-07-13 17:00:00,55.0,55.0,30.18,West,280,15.0,-999.0,100,-99.99,,,-99.99,,2013-07-14 01:00:00,
2013-07-13 17:32:00,55.0,55.0,30.18,West,280,15.0,-999.0,100,-99.99,,,-99.99,,2013-07-14 01:32:00,
2013-07-13 17:43:00,55.0,55.0,30.18,West,280,15.0,-999.0,100,-99.99,,,-99.99,,2013-07-14 01:43:00,
2013-07-13 17:52:00,55.0,55.0,30.18,West,280,15.0,-999.0,100,-99.99,,,-99.99,,2013-07-14 01:52:00,
2013-07-13 18:00:00,55.0,54.0,30.19,West,280,14.0,-999.0,98,-99.99,,,-99.99,,2013-07-14 02:00:00,
2013-07-13 18:32:00,55.0,54.0,30.19,West,280,14.0,-999.0,98,-99.99,,,-99.99,,2013-07-14 02:32:00,
2013-07-13 18:42:00,55.0,54.0,30.19,West,280,14.0,-999.0,98,-99.99,,,-99.99,,2013-07-14 02:42:00,
2013-07-13 18:53:00,55.0,54.0,30.19,West,280,14.0,-999.0,98,-99.99,,,-99.99,,2013-07-14 02:53:00,
2013-07-13 19:00:00,54.0,54.0,30.20,WNW,300,18.0,-999.0,97,-99.99,,,-99.99,,2013-07-14 03:00:00,
2013-07-13 19:32:00,54.0,54.0,30.20,WNW,300,18.0,-999.0,97,-99.99,,,-99.99,,2013-07-14 03:32:00,
2013-07-13 19:43:00,54.0,54.0,30.20,WNW,300,18.0,-999.0,97,-99.99,,,-99.99,,2013-07-14 03:43:00,
2013-07-13 19:53:00,54.0,54.0,30.20,WNW,300,18.0,-999.0,97,-99.99,,,-99.99,,2013-07-14 03:53:00,
2013-07-13 20:00:00,54.0,53.0,30.22,WNW,300,15.0,-999.0,98,-99.99,,,-99.99,,2013-07-14 04:00:00,
2013-07-13 20:32:00,54.0,53.0,30.22,WNW,300,15.0,-999.0,98,-99.99,,,-99.99,,2013-07-14 04:32:00,
2013-07-13 20:42:00,54.0,53.0,30.22,WNW,300,15.0,-999.0,98,-99.99,,,-99.99,,2013-07-14 04:42:00,
2013-07-13 20:53:00,54.0,53.0,30.22,WNW,300,15.0,-999.0,98,-99.99,,,-99.99,,2013-07-14 04:53:00,
2013-07-13 21:00:00,54.0,52.0,30.23,WNW,290,18.0,-999.0,95,-99.99,,,-99.99,,2013-07-14 05:00:00,
2013-07-13 21:32:00,54.0,52.0,30.23,WNW,290,18.0,-999.0,95,-99.99,,,-99.99,,2013-07-14 05:32:00,
2013-07-13 21:43:00,54.0,52.0,30.23,WNW,290,18.0,-999.0,95,-99.99,,,-99.99,,2013-07-14 05:43:00,
2013-07-13 21:53:00,54.0,52.0,30.23,WNW,290,18.0,-999.0,95,-99.99,,,-99.99,,2013-07-14 05:53:00,
2013-07-13 22:00:00,53.0,52.0,30.26,WNW,290,16.0,-999.0,96,-99.99,,,-99.99,,2013-07-14 06:00:00,
2013-07-13 22:42:00,53.0,52.0,30.26,WNW,290,16.0,-999.0,96,-99.99,,,-99.99,,2013-07-14 06:42:00,
2013-07-13 22:53:00,53.0,52.0,30.26,WNW,290,16.0,-999.0,96,-99.99,,,-99.99,,2013-07-14 06:53:00,